FW2442 Weather Reports


Display with metric or nautical units.
time (UTC)temp
F
wind
direction
speed
MPH
gust
MPH
rain 1hr
in
rain 24hr
in
rain mn
in
humidity
%
barometer
mb
20260508151525 62 87 0.0 1.0 0.00 0.43 0.43 90 1015.7
20260508150525 62 68 0.0 1.0 0.00 0.43 0.43 91 1015.8
20260508145525 62 80 1.0 2.0 0.01 0.43 0.43 92 1015.8
20260508144525 61 34 1.0 2.0 0.02 0.43 0.43 91 1015.8
20260508143525 61 29 1.0 1.0 0.08 0.43 0.43 91 1015.8
20260508142525 60 30 1.0 2.0 0.21 0.43 0.43 90 1015.8
20260508141525 60 42 1.0 2.0 0.43 0.43 0.43 90 1015.9
20260508140525 60 29 1.0 2.0 0.43 0.43 0.43 92 1015.9
20260508135525 60 14 1.0 1.0 0.42 0.42 0.42 93 1015.9
20260508134545 60 340 2.0 6.0 0.41 0.41 0.41 93 1015.9
20260508133525 60 325 4.0 9.0 0.35 0.35 0.35 93 1016.4
20260508132525 60 312 11.0 19.0 0.22 0.22 0.22 90 1016.3
20260508131525 61 290 16.0 22.0 0.00 0.00 0.00 85 1015.8
20260508130546 66 284 18.0 32.0 0.00 0.00 0.00 77 1015.4
20260508125525 72 0.0 0.0 0.00 0.00 0.00 63 1014.4
20260508124526 73 0.0 0.0 0.00 0.00 0.00 63 1014.2
20260508123525 74 128 0.0 2.0 0.00 0.00 0.00 60 1014.2
20260508122524 75 105 1.0 3.0 0.00 0.00 0.00 59 1014.3
20260508121523 75 114 1.0 4.0 0.00 0.00 0.00 60 1014.3
20260508120543 74 105 2.0 5.0 0.00 0.00 0.00 60 1014.5
20260508115523 75 127 2.0 7.0 0.00 0.00 0.00 60 1014.5
20260508114521 75 131 1.0 2.0 0.00 0.00 0.00 59 1014.5
20260508113520 74 95 1.0 5.0 0.00 0.00 0.00 61 1014.6
20260508112519 72 108 1.0 3.0 0.00 0.00 0.00 63 1014.7
20260508111538 72 101 0.0 1.0 0.00 0.00 0.00 62 1014.7
20260508110518 73 156 0.0 5.0 0.00 0.00 0.00 62 1014.7
20260508105517 72 105 2.0 6.0 0.00 0.00 0.00 63 1014.9
20260508104517 72 136 0.0 2.0 0.00 0.00 0.00 64 1014.8
20260508103519 72 128 1.0 6.0 0.00 0.00 0.00 63 1014.9
20260508102517 71 155 1.0 4.0 0.00 0.00 0.00 64 1015.0
20260508101517 71 123 2.0 7.0 0.00 0.00 0.00 64 1015.1
20260508100517 72 137 1.0 3.0 0.00 0.00 0.00 64 1015.3
20260508095517 71 92 1.0 5.0 0.00 0.00 0.00 66 1015.4
20260508094546 70 133 1.0 4.0 0.00 0.00 0.00 67 1015.6
20260508093525 69 157 2.0 3.0 0.00 0.00 0.00 68 1015.7
20260508092526 69 132 1.0 4.0 0.00 0.00 0.00 69 1015.7
20260508091526 69 150 2.0 9.0 0.00 0.00 0.00 68 1015.8
20260508090525 67 106 0.0 2.0 0.00 0.00 0.00 71 1015.9
20260508085526 67 113 1.0 6.0 0.00 0.00 0.00 71 1015.9
20260508084525 66 113 2.0 4.0 0.00 0.00 0.00 72 1015.9
20260508083526 66 124 2.0 3.0 0.00 0.00 0.00 73 1015.9
20260508082525 64 171 0.0 2.0 0.00 0.00 0.00 76 1016.0
20260508081526 63 162 1.0 3.0 0.00 0.00 0.00 77 1016.1
20260508080525 62 132 1.0 3.0 0.00 0.00 0.00 80 1015.9
20260508075526 60 116 1.0 3.0 0.00 0.00 0.00 82 1016.1
20260508074546 59 120 0.0 2.0 0.00 0.00 0.00 82 1016.1
20260508073525 59 138 1.0 2.0 0.00 0.00 0.00 83 1016.2
20260508072526 59 133 1.0 2.0 0.00 0.00 0.00 82 1016.2
20260508071517 59 121 1.0 2.0 0.00 0.00 0.00 83 1016.2
20260508070516 58 124 2.0 7.0 0.00 0.00 0.00 84 1016.1
20260508065516 57 118 2.0 3.0 0.00 0.00 0.00 84 1016.2
20260508064516 57 110 1.0 2.0 0.00 0.00 0.00 85 1016.1
20260508063536 56 134 1.0 2.0 0.00 0.00 0.00 87 1016.2
20260508062536 55 119 1.0 2.0 0.00 0.00 0.00 88 1016.1
20260508061536 55 119 1.0 2.0 0.00 0.00 0.00 87 1016.0
20260508060516 55 125 1.0 2.0 0.00 0.00 0.00 87 1016.0
20260508055515 54 121 1.0 2.0 0.00 0.00 0.00 88 1015.9
20260508054516 54 143 1.0 2.0 0.00 0.00 0.00 90 1015.9
20260508053536 53 120 1.0 2.0 0.00 0.00 0.00 90 1015.8
20260508052535 53 117 1.0 2.0 0.00 0.00 0.00 91 1015.8
20260508051557 52 117 1.0 2.0 0.00 0.00 0.00 90 1015.8
20260508050516 53 114 2.0 2.0 0.00 0.00 0.00 89 1015.9
20260508045536 52 127 1.0 2.0 0.00 0.00 0.00 89 1015.9
20260508044516 52 122 1.0 2.0 0.00 0.00 0.00 90 1016.0
20260508043536 51 117 1.0 2.0 0.00 0.00 0.00 90 1016.1
20260508042517 51 120 1.0 2.0 0.00 0.00 0.00 91 1016.0
20260508041535 51 113 2.0 2.0 0.00 0.00 0.00 91 1015.9
20260508040516 51 124 2.0 2.0 0.00 0.00 0.00 91 1015.9
20260508035516 51 107 2.0 2.0 0.00 0.00 0.00 91 1015.8
20260508034517 50 108 1.0 2.0 0.00 0.00 0.00 91 1015.8
20260508033536 50 115 2.0 2.0 0.00 0.00 0.00 91 1015.7
20260508032536 50 107 1.0 2.0 0.00 0.00 0.00 91 1015.8
20260508031516 50 0.0 0.0 0.00 0.00 0.00 91 1015.7
20260508030538 50 0.0 0.0 0.00 0.00 0.00 91 1015.5
20260508025517 50 117 1.0 1.0 0.00 0.00 0.00 91 1015.4
20260508024517 50 117 1.0 2.0 0.00 0.00 0.00 90 1015.3
20260508023515 50 108 1.0 2.0 0.00 0.00 0.00 90 1015.3
20260508022516 51 120 1.0 2.0 0.00 0.00 0.00 90 1015.2
20260508021517 51 113 2.0 2.0 0.00 0.00 0.00 89 1015.2
20260508020521 51 113 1.0 2.0 0.00 0.00 0.00 89 1015.2
20260508015517 51 131 1.0 2.0 0.00 0.00 0.00 88 1014.9
20260508014536 51 114 1.0 2.0 0.00 0.00 0.00 88 1015.1
20260508013517 51 139 1.0 2.0 0.00 0.00 0.00 87 1015.1
20260508012517 52 124 1.0 2.0 0.00 0.00 0.00 87 1015.0
20260508011517 52 108 1.0 2.0 0.00 0.00 0.00 87 1015.1
20260508010516 52 119 1.0 2.0 0.00 0.00 0.00 87 1015.0
20260508005517 52 121 1.0 2.0 0.00 0.00 0.00 86 1015.0
20260508004556 52 119 1.0 2.0 0.00 0.00 0.00 86 1014.9
20260508003537 53 127 1.0 2.0 0.00 0.00 0.00 85 1014.9
20260508002517 53 110 2.0 2.0 0.00 0.00 0.00 85 1014.9
20260508001536 53 107 1.0 2.0 0.00 0.00 0.00 85 1015.0
20260508000516 53 110 2.0 4.0 0.00 0.00 0.00 84 1014.9
20260507235517 53 112 2.0 4.0 0.00 0.00 0.00 84 1014.9
20260507234518 54 112 2.0 2.0 0.00 0.00 0.00 84 1014.9
20260507233516 54 115 2.0 2.0 0.00 0.00 0.00 83 1014.9
20260507232537 54 125 2.0 2.0 0.00 0.00 0.00 83 1014.9
20260507231537 54 126 2.0 3.0 0.00 0.00 0.00 83 1015.0
20260507230540 54 118 2.0 2.0 0.00 0.00 0.00 82 1015.0
20260507225517 54 123 2.0 3.0 0.00 0.00 0.00 82 1015.0
20260507224517 55 110 2.0 3.0 0.00 0.00 0.00 82 1015.1
20260507223516 55 137 2.0 3.0 0.00 0.00 0.00 81 1015.1
20260507222517 55 116 2.0 3.0 0.00 0.00 0.00 81 1015.0
20260507221518 55 138 2.0 6.0 0.00 0.00 0.00 80 1015.0
20260507220517 56 115 2.0 3.0 0.00 0.00 0.00 80 1015.2
20260507215516 56 131 2.0 8.0 0.00 0.00 0.00 80 1015.0
20260507214516 56 126 2.0 4.0 0.00 0.00 0.00 80 1015.0
20260507213538 56 0.0 0.0 0.00 0.00 0.00 78 1015.1
20260507212517 57 133 0.0 1.0 0.00 0.00 0.00 77 1015.0
20260507211517 57 106 0.0 1.0 0.00 0.00 0.00 77 1015.0
20260507210518 57 126 2.0 8.0 0.00 0.00 0.00 77 1014.9
20260507205518 58 0.0 0.0 0.00 0.00 0.00 76 1015.0
20260507204517 58 118 2.0 3.0 0.00 0.00 0.00 75 1014.8
20260507203519 59 127 2.0 8.0 0.00 0.00 0.00 75 1014.7
20260507202518 59 132 0.0 1.0 0.00 0.00 0.00 74 1014.8
20260507201537 59 120 2.0 6.0 0.00 0.00 0.00 73 1014.7
20260507200517 60 145 0.0 1.0 0.00 0.00 0.00 73 1014.7
20260507195517 60 110 2.0 7.0 0.00 0.00 0.00 72 1014.8
20260507194517 61 105 1.0 4.0 0.00 0.00 0.00 72 1014.8
20260507193517 61 127 0.0 2.0 0.00 0.00 0.00 72 1014.9
20260507192517 61 0.0 0.0 0.00 0.00 0.00 71 1014.8
20260507191518 61 128 0.0 2.0 0.00 0.00 0.00 71 1014.6
20260507190517 62 121 2.0 9.0 0.00 0.00 0.00 71 1014.6
20260507185559 62 0.0 0.0 0.00 0.00 0.00 69 1014.6
20260507184516 63 137 0.0 3.0 0.00 0.00 0.00 68 1014.6
20260507183517 64 116 1.0 4.0 0.00 0.00 0.00 67 1014.5
20260507182536 64 0.0 0.0 0.00 0.00 0.00 66 1014.5
20260507181517 66 0.0 0.0 0.00 0.00 0.00 64 1014.4
20260507180519 67 133 1.0 4.0 0.00 0.00 0.00 63 1014.2
20260507175516 67 108 0.0 1.0 0.00 0.00 0.00 62 1014.1
20260507174517 68 128 1.0 4.0 0.00 0.00 0.00 61 1014.1
20260507173516 68 133 0.0 3.0 0.00 0.00 0.00 60 1014.0
20260507172519 69 123 2.0 8.0 0.00 0.00 0.00 59 1013.9
20260507171516 69 129 1.0 6.0 0.00 0.00 0.00 57 1013.8
20260507170517 70 125 2.0 5.0 0.00 0.00 0.00 55 1013.7
20260507165519 71 146 3.0 8.0 0.00 0.00 0.00 52 1013.6
20260507164536 71 155 4.0 12.0 0.00 0.00 0.00 53 1013.7
20260507163520 72 164 2.0 7.0 0.00 0.00 0.00 53 1013.7
20260507162517 72 156 3.0 7.0 0.00 0.00 0.00 51 1013.5
20260507161517 73 151 2.0 8.0 0.00 0.00 0.00 52 1013.5
20260507160519 73 130 4.0 10.0 0.00 0.00 0.00 51 1013.5
20260507155557 74 159 5.0 10.0 0.00 0.00 0.00 50 1013.5
20260507154518 74 138 3.0 7.0 0.00 0.00 0.00 49 1013.5
20260507153517 74 159 5.0 11.0 0.00 0.00 0.00 48 1013.6
20260507152518 75 117 7.0 11.0 0.00 0.00 0.00 47 1013.5